Flag for Switzerland Weather past 2 weeks in Renens, Vaud, Switzerland

Now
59 °F

Cool.


Feels Like: 58 °F
Forecast: 50 / 61 °F
Wind: 10 mph from North

Location: Aigle

Current Time: May 25, 2015 at 8:33:00 PM

Latest Report: May 25, 2015 at 7:00 PM


Visibility: N/A

Pressure: 29.93 "Hg

Humidity: 72%

Dew point: 50 °F

Location of RenensLocation

Historic Weather in Renens — Graph

°F

Renens temperature yesterday

Maximum temperature yesterday: 66 °F (at 4:00 PM)
Minimum temperature yesterday: 42 °F (at 6:00 AM)
Average temperature yesterday: 56 °F

Past Weeks' High & Low Weather Summary

 TemperatureHumidityPressure
High80 °F (May 13, 6:00 PM)95% (May 18, 7:00 AM)30.30 "Hg (May 18, 7:00 AM)
Low42 °F (May 24, 6:00 AM)35% (May 23, 8:00 PM)29.73 "Hg (May 18, 7:00 PM)
Average58 °F69%30.06 "Hg
* Reported May 10 7:00 PM — May 25 7:00 PM, Renens, Weather by CustomWeather, © 2015

Note: Actual official high and low records may vary slightly from our data, if they occured in-between our weather recording intervals... More about our weather records

Advertising

Renens weather history for previous 24 hours

 ConditionsComfort  
Time TempWeatherWind HumidityBarometerVisibility
7:00 PM
Mon, May 25
59 °FCool.10 mph72%29.93 "HgN/A
6:00 PM64 °FMild.5 mph57%29.91 "HgN/A
5:00 PM66 °FOvercast.2 mph55%29.91 "Hg12 mi
4:00 PM66 °FMild.3 mph53%29.92 "HgN/A
3:00 PM64 °FMild.14 mph59%29.93 "HgN/A
2:00 PM63 °FOvercast.13 mph57%29.95 "Hg12 mi
1:00 PM68 °FMild.12 mph57%29.94 "HgN/A
12:00 PM67 °FMild.5 mph55%29.96 "HgN/A
11:00 AM64 °FScattered clouds.5 mph65%29.98 "Hg18 mi
10:00 AM61 °FCool.3 mph69%30.00 "HgN/A
9:00 AM59 °FCool.1 mph77%30.01 "HgN/A
8:00 AM55 °FOvercast.1 mph90%30.02 "Hg16 mi
7:00 AM54 °FCool.2 mph89%30.02 "HgN/A
6:40 AM53 °FCool.2 mph91%30.03 "HgN/A
6:00 AM54 °FCool.1 mph88%30.02 "HgN/A
4:00 AM55 °FCool.1 mph84%30.02 "HgN/A
3:00 AM54 °FCool.No wind90%30.02 "HgN/A
2:00 AM56 °FCool.No wind84%30.02 "HgN/A
1:00 AM56 °FCool.1 mph78%30.02 "HgN/A
12:00 AM56 °FCool.No wind81%30.02 "HgN/A
10:00 PM
Sun, May 24
61 °FCool.2 mph63%30.00 "HgN/A
9:00 PM60 °FCool.1 mph74%30.00 "HgN/A
8:00 PM63 °FMild.2 mph60%29.98 "HgN/A
Weather by CustomWeather, © 2015

See weather overviewHow to use our weather pages